GLOBALSTAR M001 1 25162U 98008A 26069.74527115 -.00000070 00000+0 20130-3 0 9992 2 25162 52.0023 277.3749 0002335 94.6813 344.1373 12.38229521276738 GLOBALSTAR M004 1 25163U 98008B 26069.84506634 -.00000070 00000+0 18502-3 0 9997 2 25163 52.0024 320.6323 0003336 149.0690 287.0080 12.63416514295391 GLOBALSTAR M002 1 25164U 98008C 26069.77035701 -.00000076 00000+0 95321-5 0 9994 2 25164 52.0017 291.7908 0000506 283.8186 76.2578 11.61515203215040 GLOBALSTAR M003 1 25165U 98008D 26069.40906403 -.00000180 00000+0 -96721-3 0 9991 2 25165 51.9856 151.1412 0008703 108.1612 332.3798 12.12024253265502 GLOBALSTAR M014 1 25306U 98023A 26069.78421973 -.00000055 00000+0 41860-3 0 9994 2 25306 51.9825 209.3689 0001825 122.0121 26.9691 11.65485034222253 GLOBALSTAR M006 1 25307U 98023B 26069.06179950 -.00000049 00000+0 54842-3 0 9998 2 25307 51.9927 273.6113 0002395 218.2283 313.8275 11.58177895247633 GLOBALSTAR M015 1 25308U 98023C 26069.88340628 -.00000057 00000+0 36604-3 0 9996 2 25308 51.9855 22.2551 0012552 190.1043 182.5268 11.48860875224731 GLOBALSTAR M008 1 25309U 98023D 26069.62029655 -.00000084 00000+0 94796-4 0 9990 2 25309 51.9957 145.5872 0002528 28.6568 138.1065 12.36081477270799 GLOBALSTAR M023 1 25621U 99004A 26069.84212905 -.00000076 00000+0 15629-3 0 9991 2 25621 52.0127 321.4629 0009912 0.1545 75.4535 12.62518491249416 GLOBALSTAR M040 1 25622U 99004B 26069.75327058 -.00000093 00000+0 59637-4 0 9995 2 25622 51.9943 326.2796 0000177 272.9866 122.2881 12.62029455248914 GLOBALSTAR M036 1 25623U 99004C 26069.82613314 -.00000043 00000+0 57213-3 0 9999 2 25623 51.9950 257.5039 0010259 198.4549 263.8190 11.86620699210636 GLOBALSTAR M038 1 25624U 99004D 26069.35593487 -.00000082 00000+0 10520-3 0 9999 2 25624 52.0002 25.0231 0001353 249.5877 277.8861 12.32541962235191 GLOBALSTAR M022 1 25649U 99012A 26069.81718770 -.00000045 00000+0 50379-3 0 9995 2 25649 52.0037 286.0748 0002529 356.9633 86.0962 12.02510859208456 GLOBALSTAR M041 1 25650U 99012B 26069.58439401 -.00000106 00000+0 -26859-3 0 9997 2 25650 52.0015 176.2775 0002045 125.4354 234.6674 11.96684186210176 GLOBALSTAR M046 1 25651U 99012C 26069.81705806 -.00000123 00000+0 -37634-3 0 9991 2 25651 52.0035 226.4736 0002625 75.6634 71.8940 12.09418982215924 GLOBALSTAR M037 1 25652U 99012D 26069.45222572 -.00000083 00000+0 11655-3 0 9995 2 25652 51.9995 93.1651 0002128 63.7681 83.2433 12.62462581244908 GLOBALSTAR M045 1 25676U 99019A 26068.73756161 -.00000051 00000+0 37416-3 0 9992 2 25676 51.9956 268.3877 0001049 77.3974 3.0111 12.27074439225997 GLOBALSTAR M019 1 25677U 99019B 26069.87832947 -.00000197 00000+0 -11124-2 0 9995 2 25677 51.9885 54.2670 0001515 131.3264 234.3634 12.13885845217539 GLOBALSTAR M044 1 25678U 99019C 26069.32600333 -.00000074 00000+0 13079-3 0 9993 2 25678 51.9989 40.4547 0006045 190.5701 318.1416 11.90262698203017 GLOBALSTAR M042 1 25679U 99019D 26069.84858218 -.00000107 00000+0 -13961-3 0 9996 2 25679 52.0046 18.1504 0003055 121.5630 255.1259 12.22094465217866 GLOBALSTAR M025 1 25770U 99031A 26069.82653237 -.00000057 00000+0 33363-3 0 9995 2 25770 51.9797 261.5819 0001730 196.1503 263.1253 11.22560767511656 GLOBALSTAR M049 1 25771U 99031B 26069.84711262 -.00000042 00000+0 80997-3 0 9990 2 25771 51.9895 309.6984 0003389 101.7702 258.3474 11.12121755147091 GLOBALSTAR M047 1 25772U 99031C 26069.83782223 -.00000055 00000+0 39912-3 0 9990 2 25772 51.9821 281.2132 0016447 4.3519 355.7427 11.31932652501309 GLOBALSTAR M052 1 25773U 99031D 26069.40836919 -.00000090 00000+0 -82423-3 0 9991 2 25773 51.9875 55.6165 0002461 251.9440 278.2302 11.15064197508201 GLOBALSTAR M035 1 25851U 99037A 26069.65259341 -.00000068 00000+0 -14555-3 0 9995 2 25851 51.9942 180.7173 0013864 57.5466 52.4898 11.04541155125703 GLOBALSTAR M032 1 25852U 99037B 26069.78301491 -.00000033 00000+0 10715-2 0 9998 2 25852 52.0000 347.2349 0012246 256.5118 103.4317 11.19068862164637 GLOBALSTAR M051 1 25853U 99037C 26069.44344667 -.00000073 00000+0 -26747-4 0 9993 2 25853 51.9779 118.5809 0000630 140.2366 219.8491 11.42200564162813 GLOBALSTAR M030 1 25854U 99037D 26068.91754035 -.00000080 00000+0 -10048-3 0 9993 2 25854 51.9863 269.0569 0004117 141.2747 218.8365 11.55103908180751 GLOBALSTAR M048 1 25872U 99041A 26069.46498846 -.00000075 00000+0 -13335-3 0 9990 2 25872 51.9374 63.8523 0013215 285.8726 244.9530 11.33862683155180 GLOBALSTAR M026 1 25873U 99041B 26069.84018270 -.00000031 00000+0 12247-2 0 9993 2 25873 52.0013 295.4505 0002139 12.5108 71.9509 11.06843079178017 GLOBALSTAR M043 1 25874U 99041C 26069.57623911 -.00000054 00000+0 43338-3 0 9999 2 25874 51.9394 181.8470 0013497 49.2640 45.5377 11.25697955152871 GLOBALSTAR M028 1 25875U 99041D 26069.85833590 -.00000069 00000+0 19860-3 0 9996 2 25875 51.9617 117.8885 0063055 290.5246 68.8856 12.50597574223545 GLOBALSTAR M024 1 25883U 99043A 26069.43120479 -.00000041 00000+0 85034-3 0 9992 2 25883 52.0016 139.8806 0002095 164.1570 208.4402 11.10172638144433 GLOBALSTAR M027 1 25884U 99043B 26069.78353323 -.00000010 00000+0 20127-2 0 9994 2 25884 52.0184 224.6201 0021912 63.6158 296.6881 11.04373783170690 GLOBALSTAR M054 1 25885U 99043C 26069.86776550 -.00000068 00000+0 93013-4 0 9994 2 25885 52.0154 306.9790 0004006 280.7420 163.5115 11.39224765149448 GLOBALSTAR M053 1 25886U 99043D 26069.80167780 -.00000058 00000+0 30991-3 0 9992 2 25886 51.9967 269.0250 0003712 158.9110 289.8263 11.27670975149524 GLOBALSTAR M058 1 25907U 99049A 26069.86551810 -.00000079 00000+0 78403-4 0 9993 2 25907 51.9926 117.0659 0002287 74.9918 285.1169 11.93208434573375 GLOBALSTAR M050 1 25908U 99049B 26069.27548742 -.00000116 00000+0 -31833-3 0 9997 2 25908 51.9978 106.4365 0009242 200.1893 239.9110 12.07466120180339 GLOBALSTAR M033 1 25909U 99049C 26069.71874895 -.00000127 00000+0 -33904-3 0 9991 2 25909 51.9931 318.6469 0015138 91.8208 268.4373 12.20303826568287 GLOBALSTAR M055 1 25910U 99049D 26069.83962576 -.00000060 00000+0 29056-3 0 9998 2 25910 52.0036 316.0679 0006726 332.2554 27.7938 12.29441688201084 GLOBALSTAR M057 1 25943U 99058A 26069.80225483 -.00000056 00000+0 33426-3 0 9991 2 25943 51.9997 311.5462 0002084 186.5951 173.4871 12.24835257199601 GLOBALSTAR M059 1 25944U 99058B 26069.38356925 -.00000108 00000+0 -26572-3 0 9994 2 25944 52.0009 207.0150 0001202 127.6583 267.0673 11.99994608606003 GLOBALSTAR M056 1 25945U 99058C 26069.66576612 -.00000031 00000+0 65657-3 0 9994 2 25945 51.9955 201.3824 0000977 39.8508 61.0219 12.04786094194742 GLOBALSTAR M031 1 25946U 99058D 26069.41690610 -.00000072 00000+0 19106-3 0 9996 2 25946 51.9959 78.4399 0001282 11.2240 136.9935 12.16050801196937 GLOBALSTAR M039 1 25961U 99062A 26069.76295424 -.00000070 00000+0 18880-3 0 9996 2 25961 51.9840 176.7641 0002602 202.6499 157.4253 12.62343098213883 GLOBALSTAR M034 1 25962U 99062B 26069.33551243 -.00000077 00000+0 60113-4 0 9998 2 25962 51.9895 39.5463 0014027 183.5090 345.0141 11.79456034169793 GLOBALSTAR M029 1 25963U 99062C 26069.25514727 -.00000098 00000+0 -15259-3 0 9990 2 25963 51.9795 95.1704 0002291 274.1235 166.5842 11.99908857201065 GLOBALSTAR M061 1 25964U 99062D 26069.85999544 -.00000104 00000+0 -38315-3 0 9997 2 25964 51.9774 225.7621 0006891 107.0605 60.9307 11.76778122152576 GLOBALSTAR M063 1 26081U 00008A 26069.88814667 -.00000090 00000+0 -10289-3 0 9999 2 26081 51.9943 129.1699 0005027 107.9779 62.9601 11.86181343189223 GLOBALSTAR M062 1 26082U 00008B 26069.81550756 -.00000040 00000+0 41627-3 0 9993 2 26082 51.9871 31.6940 0007317 324.8355 40.5077 12.43481484529796 GLOBALSTAR M060 1 26083U 00008C 26069.83212150 -.00000157 00000+0 -65193-3 0 9993 2 26083 52.0047 29.3799 0003083 313.6446 59.3176 12.17675003184858 GLOBALSTAR M064 1 26084U 00008D 26069.82225920 -.00000053 00000+0 43430-3 0 9996 2 26084 52.0014 225.0287 0001583 174.9759 185.1090 11.88542788198801 GLOBALSTAR M065 1 31571U 07020A 26069.50558556 -.00000103 00000+0 35236-5 0 9996 2 31571 51.9885 135.6663 0010161 175.8302 289.9772 12.62020934867037 GLOBALSTAR M069 1 31573U 07020C 26069.68728520 -.00000097 00000+0 -42006-4 0 9992 2 31573 52.0029 170.9192 0001071 304.7404 214.7992 12.23468758866740 GLOBALSTAR M072 1 31574U 07020D 26069.82265147 -.00000074 00000+0 13648-3 0 9993 2 31574 51.9969 2.1191 0001448 104.8722 288.9110 11.91655948863258 GLOBALSTAR M071 1 31576U 07020F 26069.79835826 -.00000034 00000+0 56427-3 0 9996 2 31576 52.0052 203.7375 0000144 189.5301 317.9332 12.18266389527436 GLOBALSTAR M067 1 32263U 07048A 26069.74767134 -.00000083 00000+0 10913-3 0 9995 2 32263 51.9756 335.9442 0000985 153.3981 241.5122 12.40685050842577 GLOBALSTAR M070 1 32264U 07048B 26069.36204895 -.00000090 00000+0 77041-4 0 9998 2 32264 51.9768 37.6137 0000565 56.9935 107.3443 12.62331441847283 GLOBALSTAR M066 1 32265U 07048C 26069.76945892 -.00000088 00000+0 57742-4 0 9995 2 32265 51.9619 340.4438 0004382 188.6653 188.3019 12.30386772848112 GLOBALSTAR M068 1 32266U 07048D 26068.70337666 -.00000082 00000+0 11882-3 0 9991 2 32266 51.9873 212.8603 0001142 48.4906 53.9801 12.62842011851103 GLOBALSTAR M079 1 37188U 10054A 26069.41652326 -.00000103 00000+0 33143-5 0 9992 2 37188 52.0051 49.3401 0000551 110.1387 55.2914 12.62263900710077 GLOBALSTAR M074 1 37189U 10054B 26069.88499776 -.00000111 00000+0 -40031-4 0 9995 2 37189 52.0026 47.1955 0000240 84.2625 290.3520 12.62266306710743 GLOBALSTAR M076 1 37190U 10054C 26069.38998615 -.00000103 00000+0 51199-5 0 9996 2 37190 52.0040 48.8969 0000362 133.9747 30.2549 12.62270493710391 GLOBALSTAR M077 1 37191U 10054D 26069.53292304 -.00000093 00000+0 -27112-3 0 9991 2 37191 51.9966 69.7876 0000581 128.8891 18.5089 11.68226933709618 GLOBALSTAR M075 1 37192U 10054E 26069.47859683 -.00000105 00000+0 -64020-5 0 9999 2 37192 51.9937 90.7376 0000368 101.1269 46.1678 12.62265040709474 GLOBALSTAR M073 1 37193U 10054F 26069.85003215 -.00000097 00000+0 39140-4 0 9997 2 37193 52.0091 3.6313 0000566 97.1882 297.7686 12.62269774711516 GLOBALSTAR M083 1 37739U 11033A 26069.87286501 -.00000090 00000+0 78058-4 0 9998 2 37739 51.9871 311.9281 0000825 95.7873 344.5699 12.62267641680530 GLOBALSTAR M088 1 37740U 11033B 26069.60938776 -.00000086 00000+0 97072-4 0 9991 2 37740 52.0200 218.9165 0000774 101.9307 339.2629 12.62262214676048 GLOBALSTAR M091 1 37741U 11033C 26069.80073409 -.00000080 00000+0 13080-3 0 9997 2 37741 51.9991 181.4453 0000833 104.9627 66.4784 12.62270408676856 GLOBALSTAR M085 1 37742U 11033D 26069.62771528 -.00000092 00000+0 68281-4 0 9992 2 37742 52.0117 133.1783 0000747 109.9523 55.1843 12.62269734677349 GLOBALSTAR M081 1 37743U 11033E 26069.65411816 -.00000089 00000+0 83103-4 0 9993 2 37743 51.9952 135.6464 0000609 127.3900 37.7425 12.62262900677494 GLOBALSTAR M089 1 37744U 11033F 26069.45230566 -.00000097 00000+0 35119-4 0 9996 2 37744 51.9920 90.4377 0000146 167.0834 340.5941 12.62264807678312 GLOBALSTAR M084 1 38040U 11080A 26069.84609865 -.00000090 00000+0 74840-4 0 9990 2 38040 52.0026 316.6705 0000449 86.5147 351.3393 12.62265473656347 GLOBALSTAR M080 1 38041U 11080B 26069.72897451 -.00000087 00000+0 93948-4 0 9994 2 38041 52.0078 318.7121 0001105 67.5487 327.3044 12.62267137656453 GLOBALSTAR M082 1 38042U 11080C 26069.75440792 -.00000080 00000+0 13251-3 0 9991 2 38042 52.0067 274.1249 0001139 79.2150 1.2172 12.62268298657160 GLOBALSTAR M092 1 38043U 11080D 26069.79334014 -.00000088 00000+0 89412-4 0 9996 2 38043 52.0114 4.3940 0000490 73.9651 303.4169 12.62264426655622 GLOBALSTAR M090 1 38044U 11080E 26069.86531653 -.00000080 00000+0 13316-3 0 9994 2 38044 52.0108 267.7113 0000946 94.7084 8.9327 12.62271944657291 GLOBALSTAR M086 1 38045U 11080F 26069.03030120 -.00000068 00000+0 20066-3 0 9993 2 38045 51.9889 270.3445 0001192 151.2397 10.8337 12.62283900657135 GLOBALSTAR M097 1 39072U 13005A 26069.65706582 -.00000079 00000+0 13900-3 0 9994 2 39072 52.0042 183.2660 0000858 115.3514 244.7442 12.62265694604463 GLOBALSTAR M093 1 39073U 13005B 26069.47257274 -.00000086 00000+0 10134-3 0 9998 2 39073 52.0104 177.1394 0001050 121.0567 239.0402 12.62273382604394 GLOBALSTAR M094 1 39074U 13005C 26069.47276195 -.00000105 00000+0 -89139-5 0 9998 2 39074 51.9949 91.3553 0000589 118.7373 241.3552 12.62267243606009 GLOBALSTAR M096 1 39075U 13005D 26069.56511277 -.00000088 00000+0 90568-4 0 9998 2 39075 52.0067 139.7979 0000734 115.1897 244.9046 12.62263694604939 GLOBALSTAR M078 1 39076U 13005E 26069.77599735 -.00000084 00000+0 10915-3 0 9990 2 39076 51.9862 223.3002 0001483 74.5331 285.5699 12.62276041603586 GLOBALSTAR M095 1 39077U 13005F 26069.80261709 -.00000089 00000+0 80781-4 0 9996 2 39077 52.0064 220.6841 0001294 97.9395 262.1619 12.62276201603449 GLOBALSTAR M087 1 52888U 22064A 26069.81600647 -.00000088 00000+0 87439-4 0 9991 2 52888 52.0028 1.9397 0000748 86.3873 273.7080 12.62266953178716